Theta_e
314 314 326 335 336 337 336 336 336 335 334 334 334 334 334 334 335 334 333 328 325 324 320 314 312 310 311 319 327 331 330 330 332 333 333 332 329 329 330 330 327 322 322 327 326 320 317 317 317 317 314 311 310 310 311 313 316 318 319 320 321 323 323 323 323 322 322 320 321 320 318 317 318 317 317 318 321 322 320 318 315 313 311 310 311
315 314 324 334 336 337 336 336 335 335 334 334 334 333 333 333 334 335 333 330 329 326 319 314 311 310 310 310 315 321 323 321 322 324 326 326 325 323 324 325 321 320 320 323 325 320 314 311 313 314 312 311 311 311 311 314 316 318 320 321 321 321 321 320 320 321 321 320 320 319 317 315 313 313 312 312 314 314 313 310 308 307 306 306 306
315 313 321 331 336 337 336 336 335 335 334 333 333 332 331 332 333 334 333 331 329 324 317 314 313 313 313 313 314 314 315 314 315 318 320 320 319 318 320 320 321 324 321 319 321 319 316 310 310 310 309 310 311 312 311 313 315 317 319 320 320 320 320 320 321 321 322 321 321 319 319 317 313 314 311 308 308 308 307 306 306 306 305 306 306
314 313 317 329 335 337 336 335 334 334 334 333 333 332 332 332 333 332 330 328 325 321 316 315 317 317 315 317 319 318 317 315 315 315 315 316 317 318 319 320 322 323 321 323 326 324 319 312 309 309 310 310 311 312 311 312 313 315 316 317 318 318 318 318 318 318 318 317 316 314 317 320 314 312 311 307 307 306 306 306 306 306 306 308 312
314 313 317 329 334 335 335 334 333 333 333 332 332 333 333 333 333 331 328 326 321 317 314 314 316 318 318 320 323 322 321 318 318 316 315 315 316 319 321 322 320 320 324 328 329 325 319 312 310 310 311 311 311 312 311 312 312 313 313 314 314 314 314 314 314 313 312 311 311 309 312 321 319 312 310 307 306 306 306 306 305 306 307 308 314
313 311 318 331 333 334 334 333 332 331 331 331 332 333 333 333 333 329 324 320 316 314 315 315 314 315 318 320 321 320 320 320 321 320 318 315 316 321 326 325 319 321 327 325 324 322 319 315 312 311 311 312 312 312 312 312 312 312 312 312 312 312 312 312 312 311 311 310 311 314 316 322 320 312 310 308 306 306 306 306 307 309 308 306 313
313 309 317 331 333 333 333 330 331 330 330 331 333 333 332 333 332 327 320 316 315 317 319 318 317 318 317 317 318 317 317 319 319 318 317 317 318 322 325 325 319 321 325 323 323 322 321 318 315 312 312 312 312 312 312 312 312 312 312 312 312 312 312 311 312 311 310 313 317 320 321 320 317 310 309 308 305 307 305 307 308 312 313 307 312
313 309 314 329 332 331 331 327 330 329 328 331 332 332 331 331 329 324 320 316 315 316 318 317 318 320 319 317 319 318 318 319 320 320 319 317 317 321 324 324 321 321 324 325 326 324 320 316 315 313 312 313 312 313 313 313 312 312 312 312 312 311 311 310 310 309 310 316 320 321 323 322 319 314 312 309 306 307 305 308 308 312 314 309 311
312 310 312 326 329 327 328 325 329 329 327 329 330 331 329 330 327 322 320 315 314 314 314 316 319 319 316 318 320 319 318 318 319 321 321 317 316 320 322 323 323 321 322 324 323 321 316 313 314 313 313 313 313 313 313 313 313 313 313 312 312 311 311 311 309 309 310 316 320 318 321 324 321 318 316 312 308 307 306 307 307 310 311 310 315
311 311 309 324 326 320 323 323 327 330 328 327 326 327 327 328 325 320 317 313 313 314 313 316 321 319 314 317 319 317 318 318 319 319 319 318 317 320 321 322 323 322 322 324 323 319 315 313 313 313 313 313 313 314 313 313 313 313 313 313 312 312 311 311 310 310 310 317 321 318 319 322 321 319 318 317 310 307 306 306 306 307 308 309 315
310 310 307 321 323 314 318 318 324 328 329 328 324 325 325 325 321 316 315 313 314 316 317 319 321 320 315 314 315 319 321 321 320 319 318 317 317 319 320 322 323 321 323 324 321 317 314 313 313 314 314 314 314 314 314 314 314 314 314 313 312 312 312 312 312 313 313 317 320 320 321 322 323 321 319 318 311 307 307 307 306 306 307 308 310
310 309 307 316 316 312 315 314 319 326 329 329 325 324 325 323 318 313 312 311 315 318 321 323 325 324 320 314 314 318 321 320 317 317 317 315 315 316 318 321 320 320 321 319 316 315 314 314 314 314 314 315 315 315 315 315 315 315 315 315 314 314 314 314 314 315 316 318 318 319 321 321 320 318 318 317 310 307 307 306 307 306 307 307 308
310 309 308 312 313 313 315 314 321 326 329 328 323 324 323 320 315 312 311 310 315 319 320 324 326 325 321 316 316 316 316 316 314 315 315 313 313 313 315 318 318 319 318 316 315 315 314 314 314 315 315 315 316 316 316 316 317 317 317 317 316 317 316 316 316 317 317 318 319 319 321 320 317 316 317 316 309 308 309 309 310 310 310 310 310
310 309 309 312 313 314 316 321 326 326 326 324 321 321 320 317 313 311 310 309 314 317 318 322 325 321 317 320 322 316 311 312 311 313 313 313 314 313 314 315 315 317 317 315 314 314 314 315 315 315 316 316 317 317 317 317 317 318 318 318 318 318 318 318 317 318 318 317 318 319 320 320 318 319 319 317 314 314 314 315 315 315 316 317 315
310 309 309 311 311 313 319 323 324 321 321 321 319 319 317 315 312 310 309 309 311 314 316 319 323 320 316 323 326 318 310 310 310 311 312 312 313 313 313 313 314 314 315 315 315 315 315 315 315 316 316 316 317 317 317 318 318 318 318 318 318 318 318 318 318 318 318 318 318 319 320 318 317 320 321 320 319 318 318 318 318 318 318 318 317
310 309 309 309 309 312 317 320 319 318 319 318 317 316 314 311 309 308 309 310 310 313 315 317 324 324 318 320 322 316 311 310 309 309 309 310 311 311 312 312 313 314 314 315 315 315 315 316 316 316 316 316 317 317 317 317 317 317 317 318 317 317 317 317 318 318 318 318 318 319 320 319 318 320 322 322 320 318 318 319 318 319 319 318 318
311 310 309 309 309 312 315 316 316 317 317 315 314 312 310 308 308 309 310 310 310 311 312 316 324 325 321 317 314 312 311 310 309 308 308 309 309 310 311 312 313 313 314 314 315 315 315 316 315 316 316 316 316 316 316 317 317 317 317 317 317 317 317 317 317 317 317 318 318 318 319 319 318 319 322 321 319 318 318 319 319 319 319 319 318
311 310 310 309 309 310 313 314 315 317 316 314 312 309 308 308 309 309 309 310 309 309 310 313 317 316 316 314 312 312 310 309 309 308 308 308 309 310 310 312 312 313 313 314 314 314 315 315 315 315 315 315 315 315 315 316 316 316 316 316 316 316 316 317 317 317 317 317 318 318 318 318 318 319 322 322 320 321 321 321 320 319 319 320 320
312 311 310 309 309 309 310 310 312 314 314 313 310 308 309 309 309 309 309 309 309 309 309 310 310 310 310 311 310 310 309 309 308 308 308 308 308 309 310 311 311 312 312 313 313 313 314 314 314 314 314 314 314 315 315 315 315 315 316 316 316 316 317 317 317 317 317 318 318 318 318 318 318 319 321 322 323 323 323 323 321 321 320 320 321
313 312 311 309 310 309 308 309 310 311 310 310 309 309 309 309 310 309 309 309 309 308 308 308 308 308 309 309 309 309 308 308 308 308 308 308 308 308 309 310 310 311 312 312 313 313 313 314 314 314 314 314 314 314 314 315 315 315 316 316 316 316 317 317 317 318 318 318 319 319 319 319 319 320 320 322 323 324 324 323 322 322 321 321 321
314 313 312 310 310 309 309 309 309 309 308 309 309 309 309 310 309 309 309 309 309 308 308 308 308 308 308 308 308 308 308 307 307 307 307 307 307 308 308 309 309 310 311 312 312 312 312 313 313 313 313 313 314 314 315 315 316 316 316 316 317 317 318 318 318 319 319 320 320 320 321 321 320 320 321 321 322 323 323 322 322 322 323 322 322
317 315 314 312 310 310 310 310 309 309 309 309 309 310 309 309 309 309 310 309 309 309 308 308 308 308 308 308 307 307 307 307 307 306 306 306 306 306 307 308 308 309 310 311 311 311 312 312 312 312 313 314 314 315 315 316 316 317 317 317 318 318 319 319 319 320 321 321 321 321 321 321 320 320 320 320 321 322 322 322 322 322 323 323 323
319 318 316 314 312 311 310 310 310 309 309 310 309 310 310 310 311 312 312 311 310 309 309 309 309 309 308 308 308 308 308 308 308 308 308 307 307 307 306 306 307 307 308 309 310 310 310 311 311 312 313 314 315 316 316 317 317 318 319 319 320 320 320 321 321 321 321 322 321 322 321 320 320 320 320 321 322 322 322 322 321 321 321 322 322
320 319 317 316 315 313 312 310 310 309 309 310 310 312 312 313 314 314 314 314 313 313 312 312 312 312 311 311 310 311 311 310 311 310 310 310 310 309 308 308 307 307 308 308 309 310 311 311 313 314 315 316 317 318 318 319 320 321 321 322 322 322 323 323 323 322 322 322 322 322 321 321 320 321 322 322 322 323 323 323 322 321 321 321 321
321 320 319 318 317 316 314 313 311 310 310 310 312 314 315 317 317 317 317 317 317 317 316 316 316 316 316 315 315 315 315 315 314 314 314 314 314 314 314 313 312 312 311 312 313 314 315 315 316 317 318 319 320 321 321 322 323 323 323 323 324 323 323 323 323 322 321 321 321 321 321 322 322 322 322 322 322 322 322 322 322 322 322 321 321
322 321 320 319 319 317 316 315 314 312 312 312 314 316 318 320 321 321 321 320 320 320 320 319 319 319 319 319 318 319 319 319 318 318 318 318 318 318 319 319 319 318 318 318 319 319 320 320 320 321 321 321 322 322 322 323 323 324 323 323 323 322 322 322 322 322 322 322 321 321 322 322 322 322 322 321 321 321 321 320 320 322 323 322 321
323 321 321 320 319 318 317 317 316 315 313 314 315 317 320 322 323 323 324 324 323 323 323 322 322 322 322 321 321 321 321 321 321 320 320 321 320 321 321 321 322 322 322 322 323 323 323 323 323 323 323 323 322 322 322 322 322 323 323 322 321 321 321 320 321 321 322 322 321 321 322 322 322 322 321 320 320 320 320 319 318 320 321 322 322
325 322 321 321 320 319 318 317 317 317 316 315 316 318 320 321 323 324 325 325 325 325 325 324 324 324 324 323 324 324 324 324 324 324 323 324 324 324 324 324 324 323 323 323 324 324 323 323 323 322 322 321 321 321 321 321 322 321 321 320 321 321 320 319 319 320 320 320 320 321 321 322 321 320 319 319 320 320 319 319 318 319 320 321 322
327 323 321 321 320 320 319 318 318 318 318 317 317 318 319 320 322 324 325 325 325 325 325 325 324 324 324 324 324 325 325 325 326 326 326 325 326 326 325 325 325 324 324 324 324 323 322 322 322 321 320 320 321 322 321 321 321 320 319 319 320 319 318 318 318 318 318 319 319 320 321 321 320 319 319 319 320 319 319 319 320 321 321 322 322
329 325 322 322 321 321 320 318 318 319 320 319 319 318 319 320 321 323 324 325 325 325 324 324 324 324 324 324 325 325 325 326 326 326 326 326 326 326 326 326 325 325 325 325 325 323 322 322 322 321 320 320 322 322 320 320 321 321 320 318 317 317 316 316 318 318 319 319 319 319 319 319 318 318 319 319 319 319 319 320 321 321 321 321 321
329 326 323 322 322 321 321 319 319 319 320 321 320 320 320 320 321 323 324 324 324 325 324 324 324 324 324 325 325 325 325 325 325 326 325 326 326 326 326 326 325 325 324 324 324 323 322 322 322 321 321 320 321 320 320 319 319 320 319 317 317 317 316 316 318 320 320 319 318 318 318 317 317 318 319 320 319 319 320 320 320 320 320 320 319
328 327 324 322 322 321 321 321 320 319 319 320 321 321 321 321 322 323 323 324 324 324 324 324 324 324 324 324 324 324 324 325 325 325 325 325 325 325 325 325 325 324 323 324 323 323 322 322 322 322 322 321 320 320 320 319 318 319 318 317 318 318 318 319 321 321 320 319 318 318 317 317 318 319 319 320 320 319 319 318 318 317 317 318 317
327 326 324 322 321 321 321 321 321 320 319 320 321 321 322 322 322 322 323 323 323 323 324 324 324 324 324 323 324 324 324 324 324 324 325 325 325 324 324 324 323 323 322 322 322 322 322 321 321 321 321 321 321 322 321 320 319 319 318 318 319 319 320 321 322 323 321 319 319 319 319 319 319 319 318 318 318 317 316 316 315 315 316 316 316
326 325 324 322 322 322 322 322 321 321 321 320 320 320 321 322 322 322 322 323 323 323 323 323 323 323 323 323 323 323 324 324 324 324 324 324 324 323 323 323 322 322 321 320 319 320 320 320 319 319 320 321 321 322 321 321 321 320 320 320 319 319 319 321 322 322 322 321 320 319 319 319 318 317 316 316 315 314 313 313 313 313 313 313 312
324 325 324 324 324 324 324 324 323 323 322 321 321 320 321 321 322 322 322 323 323 323 323 323 324 323 324 324 324 324 324 325 324 324 324 323 322 322 322 323 322 321 319 318 318 318 320 319 318 319 321 322 322 321 321 321 321 320 321 320 320 319 318 319 320 320 320 321 320 319 317 316 316 315 315 313 311 311 311 310 310 310 309 308 308
323 324 325 325 325 326 326 326 326 326 324 323 323 322 322 321 322 323 323 324 324 324 324 323 324 324 324 324 324 324 324 325 324 324 324 323 322 321 322 322 321 321 320 320 320 321 322 321 319 318 320 322 321 321 321 321 321 321 321 321 321 320 319 320 319 317 318 318 318 317 315 314 314 313 311 309 308 308 307 306 305 305 304 303 303
322 322 323 324 325 326 327 327 327 327 327 326 325 324 324 323 323 323 324 325 325 325 324 324 324 324 324 324 324 324 324 324 325 325 324 323 322 321 322 323 322 322 323 323 323 323 322 322 321 320 319 321 321 320 321 322 322 322 322 323 322 322 321 319 318 316 315 316 316 314 313 312 311 309 307 306 305 304 303 302 301 301 300 300 300
321 322 322 323 325 326 326 327 326 327 327 327 327 326 326 325 325 325 325 326 326 325 325 325 324 325 325 324 324 324 324 324 325 325 324 323 323 322 323 324 323 323 324 325 324 323 322 323 323 322 320 321 322 322 322 322 322 321 322 323 322 322 320 317 315 314 314 314 313 311 310 309 307 305 303 303 302 301 300 300 300 299 299 298 298
320 321 322 322 323 325 326 326 326 326 326 327 327 327 327 327 327 327 327 327 327 326 325 325 325 325 325 324 324 324 324 325 325 325 324 323 323 323 324 324 324 324 325 325 324 323 323 324 324 323 321 321 321 321 322 322 322 320 321 322 321 319 316 315 314 313 312 312 310 309 308 306 303 302 301 301 300 300 300 299 299 299 298 298 297
320 320 321 322 323 324 325 326 326 326 326 326 327 327 327 327 327 327 327 327 327 327 326 325 325 325 325 326 325 325 324 325 325 324 324 323 324 325 325 325 325 324 324 324 324 324 324 324 323 322 321 321 320 321 322 322 322 320 319 318 317 315 314 313 313 312 311 309 308 307 305 303 301 300 300 300 299 299 299 298 298 298 298 297 297
318 319 320 321 322 323 324 325 326 326 326 327 326 327 326 326 326 326 326 326 327 328 327 326 325 324 326 327 327 326 325 325 325 324 324 323 324 325 325 325 325 323 323 324 323 324 324 324 323 322 321 322 321 321 322 322 321 320 318 317 313 312 313 313 311 311 309 308 307 305 303 302 300 300 299 299 299 298 298 298 298 297 297 297 296
317 318 318 319 320 321 323 324 325 326 326 326 326 326 326 326 325 325 324 325 326 326 326 326 325 324 324 326 327 327 325 325 325 324 323 323 323 324 324 324 324 323 324 324 324 324 323 324 323 321 322 324 321 320 320 320 320 319 317 318 316 313 312 310 310 310 308 307 305 303 302 301 300 299 298 299 298 298 298 298 297 297 297 296 296
316 316 317 317 318 319 321 322 323 325 325 326 326 325 325 326 326 325 325 325 325 325 326 325 325 325 324 325 325 326 326 326 325 325 324 324 323 324 325 324 324 324 325 325 324 323 322 323 322 320 321 322 320 319 319 318 317 316 317 319 318 315 316 313 310 309 307 306 304 302 301 300 299 299 298 298 298 298 298 297 297 297 296 296 296
315 315 316 316 317 317 318 320 321 323 324 324 325 324 325 326 326 327 326 326 325 325 326 326 326 325 324 324 323 325 327 327 326 326 325 324 323 324 323 324 325 325 323 323 323 323 321 320 320 320 319 320 319 320 321 319 316 317 318 318 314 315 319 315 309 308 306 304 303 301 301 299 299 298 298 298 298 297 297 297 296 296 296 296 295
315 315 315 315 315 315 316 317 318 319 321 322 323 324 324 325 326 327 328 328 326 326 326 326 325 325 324 323 323 324 327 328 327 326 325 324 324 323 321 323 326 324 322 322 323 324 323 320 318 318 319 320 321 322 322 320 316 316 317 316 316 318 317 311 309 310 306 303 303 301 299 299 298 298 298 297 297 297 297 296 296 296 296 296 295
315 315 315 315 315 315 315 315 315 316 318 319 320 322 324 324 325 326 327 327 326 325 325 324 324 324 323 323 324 325 327 328 327 327 326 325 325 324 322 323 324 322 322 323 325 326 324 321 319 319 321 323 323 324 323 319 315 314 314 313 314 314 311 308 309 310 305 302 302 301 300 299 298 298 298 297 297 297 297 296 296 296 296 295 295
314 314 315 315 315 315 315 314 314 314 315 316 318 320 322 323 323 324 324 325 325 324 323 323 323 322 323 324 324 324 325 325 326 327 327 325 324 325 324 323 324 323 323 323 325 326 323 321 320 319 321 323 324 325 322 317 315 313 311 309 309 308 307 306 306 305 303 301 301 300 300 298 298 298 298 297 297 297 297 296 296 296 296 295 295
314 314 314 314 314 314 314 314 314 314 313 314 316 317 319 320 321 322 323 324 324 324 323 323 322 322 323 324 324 324 323 323 325 325 324 323 322 324 323 323 326 326 322 321 322 322 322 323 321 319 322 325 326 325 319 316 315 313 309 307 307 305 304 303 301 300 300 299 299 299 298 298 298 297 297 297 296 296 296 296 296 295 295 295 295
314 314 313 313 314 313 314 314 313 313 313 313 314 315 316 318 319 321 321 322 323 323 324 323 323 322 323 324 324 324 324 324 324 323 323 322 321 322 320 322 328 325 321 321 322 321 322 324 321 318 322 323 321 319 315 313 312 309 307 306 304 303 302 301 299 298 297 297 298 297 297 297 297 296 296 296 295 296 296 295 295 295 295 294 294
314 314 314 313 313 313 313 313 313 313 313 312 313 313 314 316 318 319 320 321 321 322 323 323 322 322 323 325 325 325 326 326 325 324 325 323 321 321 318 321 326 323 321 325 326 323 323 322 319 317 318 317 316 315 313 310 308 306 306 304 303 302 300 300 298 298 297 297 297 296 296 296 296 296 296 295 295 295 295 295 294 294 294 294 294
315 314 314 314 314 313 313 313 313 313 313 313 312 312 313 314 316 317 318 319 319 321 322 322 321 322 323 325 326 327 328 327 325 325 325 324 322 321 318 320 323 321 323 327 326 326 323 319 317 317 316 315 314 312 309 307 306 306 306 304 302 301 299 299 298 297 297 296 296 296 296 296 296 296 296 295 295 294 294 294 294 294 294 293 293
Wind_Speed
13 14 15 12 11 10 9 8 8 8 8 8 7 7 5 5 5 6 7 7 6 6 5 6 8 8 10 10 10 9 9 11 11 11 11 11 10 10 8 6 5 5 7 12 13 13 13 14 14 15 15 15 15 15 14 14 13 13 13 13 12 12 11 11 11 11 11 10 10 10 9 8 8 9 8 7 7 6 6 6 6 8 8 9 9
13 15 16 13 12 11 9 9 8 8 8 8 7 7 5 5 4 5 6 5 4 4 4 6 7 8 9 10 10 9 8 8 9 9 9 8 8 8 6 4 6 8 10 11 12 12 13 14 15 15 15 15 15 14 14 13 13 12 12 12 11 10 10 10 9 9 9 9 9 9 9 7 6 9 9 8 7 7 7 7 8 9 10 10 9
12 14 16 14 13 11 10 9 9 8 8 8 7 7 5 4 3 3 3 3 3 2 4 6 7 8 9 9 9 9 9 8 9 9 9 8 7 7 7 7 9 11 11 12 12 12 14 15 15 15 15 15 15 14 13 13 12 12 11 10 9 9 8 8 8 8 8 8 8 9 9 8 7 9 10 9 9 9 9 10 10 11 12 12 12
11 13 15 14 12 12 11 9 9 8 8 7 6 6 5 5 4 2 2 1 1 3 5 7 8 9 9 9 10 11 11 10 10 10 10 9 9 9 9 10 11 11 12 15 14 13 15 15 15 15 15 15 15 15 14 13 12 12 11 10 9 8 8 8 8 9 10 10 10 9 9 9 9 10 10 10 10 11 12 12 13 13 13 13 13
10 12 14 13 11 11 11 11 9 9 7 7 6 5 6 6 4 1 1 2 3 5 6 8 9 9 10 11 11 11 11 11 11 11 10 10 11 11 10 11 12 13 14 16 14 13 14 15 15 15 16 16 16 16 15 14 14 13 12 12 11 10 10 10 11 12 12 12 11 11 10 10 10 12 11 11 11 12 14 14 14 14 14 13 13
9 10 12 11 11 11 12 12 11 9 8 7 6 5 5 4 2 2 4 5 5 6 8 8 9 9 10 11 11 10 10 10 11 11 10 11 12 12 11 12 13 14 15 14 13 12 13 15 16 16 17 17 17 17 16 16 15 15 15 14 13 13 13 13 13 13 12 12 13 12 11 10 10 12 12 12 12 14 14 14 14 14 14 14 13
9 10 11 12 10 11 12 11 11 10 8 7 6 5 4 2 1 3 6 7 6 8 9 8 10 10 9 10 10 10 10 10 11 11 10 11 13 13 11 12 13 14 14 14 14 13 14 15 17 17 18 18 17 17 17 17 16 16 16 16 15 15 15 15 14 13 13 13 12 11 10 10 10 11 12 12 12 13 13 13 13 14 14 15 14
10 9 10 13 11 11 11 9 10 10 8 7 7 5 4 2 2 3 6 6 5 8 8 8 10 10 9 9 10 11 11 11 12 12 11 11 12 13 12 12 13 14 14 15 14 14 14 15 16 17 18 18 17 17 17 17 17 17 17 16 16 16 16 16 15 15 16 13 11 10 10 10 11 10 11 11 11 11 11 12 12 13 14 16 15
11 9 10 11 10 12 10 7 9 10 9 8 7 6 4 3 2 4 5 4 5 7 7 8 10 10 9 10 10 11 11 11 12 12 11 11 12 13 12 12 13 14 14 14 14 14 15 16 16 17 18 18 18 17 17 17 17 17 17 17 17 17 17 17 17 18 17 13 12 12 12 11 10 10 10 11 10 10 11 11 11 12 14 15 15
11 10 10 9 9 11 10 8 10 11 10 9 8 7 5 4 2 4 5 3 5 6 7 8 9 9 9 9 10 11 11 11 11 12 11 12 13 13 12 12 12 13 14 14 14 15 15 16 17 17 17 17 18 17 18 18 18 18 18 18 18 18 18 18 19 19 17 14 12 12 14 14 12 11 11 11 10 11 12 12 12 12 13 14 13
10 10 10 9 9 11 10 9 11 12 10 9 7 7 6 4 3 5 4 3 4 6 7 8 8 8 8 9 10 10 11 11 12 11 11 13 13 13 12 12 11 11 13 13 14 15 15 16 17 17 17 17 18 18 18 18 18 18 19 19 19 19 18 18 20 20 18 15 12 11 13 14 12 10 11 11 11 13 13 13 13 13 13 13 13
10 10 10 10 10 10 10 10 12 12 10 9 7 6 5 3 3 5 4 3 4 5 8 10 10 8 8 9 9 10 11 11 11 11 11 12 13 12 12 11 11 11 13 13 14 15 15 16 16 16 17 17 17 17 18 18 18 18 19 19 19 19 18 19 20 20 20 17 14 13 12 12 10 10 12 12 12 14 13 13 13 13 14 14 14
11 11 11 11 10 10 11 13 13 12 10 9 7 6 5 4 3 4 4 3 3 4 8 11 11 8 8 8 8 9 10 10 11 11 11 12 12 12 12 11 11 11 13 14 15 15 15 16 16 16 16 17 17 17 17 17 17 17 18 18 18 18 18 19 20 20 21 19 17 14 12 10 11 14 15 12 13 15 13 13 13 14 15 15 15
11 12 12 11 11 11 13 15 13 10 9 8 7 6 5 4 3 3 3 3 4 4 7 11 10 8 8 8 8 8 10 10 10 11 11 11 11 11 12 12 11 12 13 14 15 15 15 15 16 16 16 16 16 16 16 16 16 16 16 16 17 17 17 18 19 19 19 19 19 16 12 12 13 15 14 13 13 15 15 14 15 15 15 16 15
11 12 11 11 11 12 14 14 11 8 8 8 7 6 6 5 4 3 2 3 5 5 7 9 9 8 9 10 9 9 10 9 9 10 11 12 12 11 12 12 12 12 12 13 14 14 14 15 15 15 15 15 15 15 15 15 14 15 15 15 15 15 16 17 17 17 17 17 18 15 12 13 13 12 11 11 12 13 15 15 16 16 16 16 14
11 11 11 10 11 13 14 12 10 8 8 8 7 7 6 6 4 3 2 4 6 6 6 9 9 8 9 10 9 9 10 9 9 10 11 11 11 11 11 12 11 12 12 12 13 14 14 14 14 14 14 14 14 14 13 13 13 13 13 14 14 14 14 15 15 15 15 15 16 14 11 12 13 11 9 9 11 9 13 16 15 17 16 16 13
10 11 10 10 10 12 13 12 10 9 9 8 8 8 7 5 4 4 4 5 6 6 7 10 10 9 9 9 8 8 9 9 10 10 10 10 11 11 11 11 11 11 11 11 11 12 13 13 13 13 13 12 12 12 12 12 12 12 12 12 12 12 13 13 14 14 14 14 15 15 13 13 13 12 9 9 11 7 12 18 17 17 17 16 14
11 11 11 10 10 11 12 11 11 11 10 9 8 8 7 6 6 6 6 6 6 6 7 9 10 10 10 9 9 9 9 9 10 10 9 10 10 10 10 10 10 10 10 10 10 10 11 12 12 12 11 11 10 10 10 10 10 10 10 11 11 11 11 12 13 12 13 13 14 14 13 13 12 13 10 11 13 11 13 18 18 17 16 15 15
12 11 11 11 10 11 11 12 12 12 11 10 9 9 8 8 7 6 6 6 6 6 7 9 9 9 9 9 10 10 10 10 10 9 9 9 9 9 9 9 9 9 9 9 9 9 9 10 10 10 9 9 9 9 9 9 9 9 9 9 9 10 10 11 11 11 12 12 12 12 12 13 13 13 11 10 13 13 15 18 17 17 16 15 15
13 12 12 12 12 11 12 12 12 12 11 11 10 9 9 8 8 7 7 7 7 7 8 9 9 9 9 9 9 10 10 10 10 9 8 8 8 8 8 8 8 8 7 8 8 8 8 8 8 7 7 7 7 7 7 7 7 7 7 8 8 9 9 10 10 10 11 10 11 11 11 12 12 13 12 10 9 10 13 16 16 15 16 15 16
15 14 13 13 13 12 12 12 12 12 12 12 11 10 9 9 8 7 8 8 8 9 9 9 9 9 9 9 9 10 10 10 10 9 8 8 7 7 7 7 6 6 6 6 6 7 6 6 6 6 6 6 6 6 6 6 6 6 6 7 7 8 8 9 9 9 9 10 10 11 11 11 11 12 11 10 8 9 11 13 15 15 16 16 16
17 16 14 13 13 13 13 13 13 12 12 12 12 11 10 9 9 9 9 9 9 9 9 9 9 9 9 9 9 9 9 9 9 9 8 8 7 7 6 6 5 5 5 5 5 5 5 4 4 4 4 4 5 5 5 6 6 6 6 7 7 8 8 8 9 9 9 10 11 12 12 12 12 12 11 10 9 9 10 11 13 14 15 16 16
18 17 15 14 13 13 13 13 13 13 13 13 12 12 11 11 10 10 10 10 10 10 10 9 9 9 9 9 9 9 9 9 9 8 8 7 7 6 6 5 5 4 4 4 4 4 3 3 3 3 3 4 5 5 6 6 6 7 7 7 7 8 8 9 9 9 10 11 12 12 12 12 12 12 11 11 12 12 13 12 12 12 13 14 15
19 17 16 15 14 14 13 13 13 13 13 13 13 12 12 12 11 11 11 10 11 11 10 10 10 9 9 9 9 9 8 8 8 8 8 7 6 6 5 5 4 4 4 3 3 2 2 2 2 2 3 4 4 5 6 6 7 7 8 8 8 9 9 10 10 10 11 11 11 11 12 12 11 11 11 12 13 14 15 14 14 13 12 12 13
19 18 17 16 15 14 14 14 13 13 13 13 13 13 13 12 12 11 11 11 11 11 11 10 10 10 9 9 8 8 8 7 7 7 7 6 6 5 5 5 4 4 3 3 2 1 1 1 1 2 3 3 4 4 5 6 6 7 8 8 9 9 10 11 12 13 13 12 11 11 11 11 11 11 11 13 13 14 15 15 15 14 14 13 13
21 20 19 18 16 15 14 14 13 13 13 13 14 14 13 12 12 11 10 11 11 10 10 10 9 9 9 8 8 7 6 6 6 6 5 5 5 5 4 4 3 3 2 2 1 1 1 2 2 3 4 4 4 5 5 5 5 5 6 7 8 9 10 11 12 13 13 12 12 11 11 11 11 11 13 14 15 15 15 15 15 14 14 14 13
23 21 20 19 18 16 15 14 14 14 14 14 14 14 14 13 12 11 10 10 10 9 9 9 8 8 8 7 7 6 5 5 4 5 4 4 4 4 3 3 3 2 2 2 2 2 3 4 4 5 5 7 7 7 6 6 6 5 6 8 9 9 11 12 12 12 12 12 12 12 12 11 12 13 14 15 16 16 16 16 15 15 15 14 14
25 23 21 20 19 17 16 15 14 14 14 14 14 14 14 13 13 11 10 9 9 8 8 8 7 7 7 6 6 5 4 4 4 4 4 4 3 3 3 2 2 3 3 3 4 5 6 6 7 7 8 9 9 8 8 8 9 8 9 10 10 11 12 13 12 12 12 12 12 11 11 12 12 14 15 15 16 16 16 15 15 15 16 16 15
27 25 24 22 20 18 17 15 14 14 14 14 14 15 14 13 12 11 10 9 8 8 7 7 6 6 5 5 5 5 5 5 5 4 4 4 4 3 3 3 4 4 5 5 6 7 8 8 9 9 10 10 7 6 8 9 10 10 10 10 10 11 13 12 12 11 12 12 12 11 11 12 13 14 14 15 15 15 15 15 15 16 17 17 17
28 27 26 24 22 20 17 15 15 15 15 14 14 14 14 13 12 11 10 9 9 8 8 7 6 5 5 5 5 6 6 6 6 6 6 5 5 5 5 6 6 7 7 7 8 9 9 10 10 10 10 10 7 7 9 9 10 9 9 10 10 11 12 10 10 11 12 12 11 11 11 12 13 14 14 14 15 15 15 16 17 17 18 19 19
30 30 28 26 24 22 19 17 16 17 16 15 14 14 13 13 12 12 11 10 10 9 9 8 7 7 7 7 7 7 7 8 8 8 8 8 8 8 8 9 9 10 10 10 10 11 11 11 12 12 11 11 10 11 12 11 10 9 9 11 10 11 10 9 9 10 11 11 11 11 12 12 13 13 13 14 14 15 16 17 18 19 20 20 20
30 31 30 28 27 24 22 20 18 18 18 17 16 15 14 13 13 12 12 11 11 11 11 10 9 9 9 9 9 10 10 11 11 11 11 11 11 11 11 12 13 13 13 13 13 13 14 14 14 14 13 13 13 13 13 12 10 8 9 10 9 9 8 8 8 9 9 10 11 11 12 11 11 12 13 14 15 15 17 18 19 19 19 20 20
30 31 31 30 28 26 25 23 21 20 19 18 17 17 16 15 14 14 13 13 13 13 13 12 12 12 12 12 12 12 12 13 13 14 14 14 14 14 14 14 14 14 14 15 15 15 15 14 14 15 15 15 14 11 10 9 6 6 8 8 8 8 7 7 8 8 8 9 10 11 10 11 12 13 13 13 14 15 16 17 17 17 18 18 19
30 30 31 31 29 27 27 25 24 23 21 20 19 18 18 17 16 16 16 15 15 15 15 15 14 15 14 14 14 14 14 14 15 15 15 16 16 15 15 15 14 13 14 14 13 12 11 10 10 10 11 11 9 7 6 5 3 5 6 6 7 7 7 8 8 8 8 9 10 10 10 12 13 12 12 13 14 14 15 15 15 15 15 16 17
30 30 30 29 28 27 27 26 26 24 23 22 21 20 19 19 18 18 18 17 17 17 17 17 17 17 17 16 16 15 15 15 15 15 16 17 16 14 13 13 12 11 11 10 9 7 7 8 8 6 5 6 5 5 4 3 2 4 4 5 6 7 9 9 9 9 9 9 9 10 11 11 11 12 12 12 12 12 13 13 14 14 14 14 15
30 30 30 29 28 28 27 27 26 26 25 24 22 21 21 21 20 20 19 19 19 19 18 18 18 19 19 18 18 17 16 16 17 17 17 18 16 14 12 10 10 11 10 8 7 5 5 8 7 5 4 4 4 3 3 3 2 3 3 5 6 8 10 10 10 9 8 8 9 10 10 10 10 11 11 11 11 12 13 13 13 13 13 13 13
31 30 31 30 30 29 28 27 27 26 26 25 24 23 22 22 21 21 20 20 20 20 20 19 19 20 20 19 19 18 18 18 18 18 17 17 16 14 13 11 11 11 9 7 6 5 6 7 5 4 4 3 3 4 4 5 4 4 5 5 6 8 10 11 9 8 7 7 8 8 8 9 10 10 11 12 12 12 13 13 13 13 13 13 13
31 31 31 31 30 30 29 28 27 27 26 26 25 24 23 23 22 22 22 21 21 21 21 21 21 21 21 20 20 19 19 19 19 18 17 16 15 14 13 13 12 11 10 8 7 7 7 7 5 4 4 3 4 5 6 6 6 5 6 7 8 8 10 10 7 6 7 6 6 7 7 8 9 11 12 12 12 13 14 14 13 13 13 13 13
30 32 32 32 31 31 30 29 28 27 27 26 26 26 25 25 25 24 25 24 24 23 23 23 23 22 22 21 20 20 21 20 19 18 18 16 15 14 13 13 13 12 12 11 10 9 8 7 8 8 6 5 6 6 8 8 7 7 7 8 8 8 8 6 4 5 6 5 6 7 7 8 10 12 12 12 13 14 14 14 13 13 13 13 13
29 31 32 33 33 32 32 32 31 29 29 28 28 28 27 27 27 27 28 28 27 26 26 25 25 24 22 21 20 21 21 20 20 19 18 17 16 15 14 14 14 14 13 13 12 10 9 9 11 10 8 7 7 7 9 9 9 9 8 7 6 6 5 3 4 5 6 6 7 8 8 9 11 12 13 13 14 15 15 14 13 13 13 13 13
29 31 32 34 34 34 34 34 34 32 32 32 31 30 29 28 29 30 30 30 30 29 28 27 27 26 24 21 21 22 22 20 20 20 19 19 18 16 16 16 15 15 14 13 13 11 11 12 12 10 6 5 7 7 8 10 10 8 7 6 5 4 3 5 6 5 6 6 8 8 8 10 12 13 13 13 14 15 15 14 13 13 13 13 14
30 31 32 33 34 34 35 36 35 35 35 34 33 32 31 30 29 29 30 30 30 29 29 28 27 27 24 23 23 22 22 20 20 21 20 19 18 18 17 17 16 15 14 13 13 12 11 13 12 8 6 6 7 7 8 9 8 7 7 5 5 4 4 6 7 5 5 7 9 9 8 11 12 13 13 13 15 15 15 13 12 13 13 14 15
30 30 31 32 34 36 37 37 36 37 37 36 36 35 33 31 30 29 28 28 28 27 27 27 27 26 24 24 24 23 22 21 19 19 19 19 19 19 17 16 15 15 14 14 13 11 11 12 11 9 8 8 8 7 7 8 7 8 8 4 3 2 2 4 6 5 6 7 9 8 8 11 13 13 13 13 15 15 13 12 11 13 14 16 17
32 31 31 32 33 36 37 37 38 38 39 38 38 36 34 33 31 30 29 27 27 26 26 27 27 26 25 26 26 25 23 21 19 18 18 18 18 18 16 15 14 15 15 12 11 11 10 10 10 9 8 8 8 8 9 9 8 7 6 5 5 2 1 3 5 6 7 9 8 8 9 12 13 13 13 13 15 14 11 11 12 14 16 18 19
33 33 32 32 32 33 34 35 37 39 40 40 39 37 35 35 34 33 32 31 30 28 28 29 30 29 29 29 28 25 23 22 22 20 19 18 18 17 15 15 15 15 15 12 11 12 9 8 9 9 8 8 9 10 11 10 8 6 5 5 4 1 2 4 5 5 7 9 9 10 12 13 13 14 14 14 15 14 10 10 13 16 18 20 21
34 34 33 32 31 31 31 32 35 38 39 40 39 37 37 38 37 36 36 35 34 33 32 32 32 31 31 30 29 26 24 24 23 22 21 20 20 18 15 15 15 16 16 13 14 14 11 10 11 11 11 11 11 12 13 12 10 8 5 4 4 3 3 5 5 4 6 7 7 9 11 13 14 14 15 15 16 14 12 12 15 17 19 22 23
34 34 33 32 31 31 32 33 34 36 37 38 38 38 39 40 39 38 38 37 37 35 34 33 32 32 31 30 28 26 25 23 22 22 22 22 21 19 17 15 15 16 16 16 16 15 13 12 13 13 13 13 13 13 14 13 12 8 5 4 2 1 2 4 4 4 6 8 7 7 10 13 13 14 15 16 16 14 13 14 16 18 19 21 22
32 32 32 31 31 32 33 33 33 34 35 35 36 38 40 41 41 40 40 40 38 36 34 33 32 32 30 28 26 24 22 21 21 22 22 21 20 20 19 17 17 18 16 16 17 16 16 16 15 14 14 14 14 14 14 13 11 7 3 1 1 3 4 5 5 5 6 9 9 10 12 13 14 14 15 16 16 14 14 16 17 19 20 21 22
30 30 30 30 31 32 32 33 34 34 35 34 35 37 39 41 42 42 42 42 40 38 35 34 33 31 29 27 25 24 22 21 22 22 22 21 19 20 21 19 20 19 17 17 17 17 18 18 17 15 14 14 14 13 13 11 8 5 2 1 2 3 4 6 7 7 8 9 9 12 15 15 16 16 15 16 15 14 15 17 18 20 22 23 24
30 29 30 31 32 32 33 34 34 35 35 34 35 36 38 39 41 43 43 42 41 39 37 36 35 32 29 27 25 24 23 23 23 22 22 21 20 21 21 21 22 21 19 20 20 19 19 19 19 17 16 15 13 11 10 8 7 4 1 1 2 3 5 6 7 8 10 11 11 13 16 17 18 17 17 17 15 13 16 19 20 21 24 25 27
30 31 31 32 33 34 34 35 35 35 35 35 36 37 38 39 40 42 42 42 41 40 39 39 37 34 31 29 26 24 24 25 24 22 22 22 21 21 21 22 23 22 20 21 22 21 21 21 20 18 15 14 12 10 9 9 7 4 1 1 2 3 5 6 7 9 11 12 14 15 17 19 20 19 19 19 17 15 17 21 22 23 26 28 30
Wind_Direction
163 161 154 151 141 140 138 129 122 119 116 118 117 115 113 106 96 91 89 81 79 73 76 94 107 123 139 154 155 155 148 141 140 135 132 130 128 128 125 112 86 68 78 76 72 72 72 70 69 70 68 66 65 67 69 73 77 79 83 86 88 87 83 80 77 71 66 62 59 55 46 46 53 47 42 53 59 56 46 33 18 8 6 9 0
166 163 156 152 143 142 137 131 128 122 121 120 118 116 117 112 106 100 91 76 65 64 91 100 107 120 129 145 157 162 158 152 147 144 140 133 134 139 132 110 76 73 87 91 87 77 70 71 71 70 68 65 65 67 69 73 78 80 83 86 89 88 85 81 74 66 60 56 53 44 36 44 50 36 37 52 57 54 45 32 22 14 13 10 2
167 164 160 155 146 146 139 136 131 127 126 121 118 119 119 117 114 101 79 42 40 77 104 106 113 121 125 130 134 135 132 128 125 131 133 126 123 121 108 93 84 80 83 86 87 78 73 75 75 72 68 67 66 67 70 73 77 80 83 86 87 86 81 72 62 55 53 48 43 32 28 40 40 29 39 56 56 52 45 34 26 19 19 16 16
166 164 163 157 150 148 143 142 140 134 128 124 124 124 122 116 113 94 58 17 79 115 113 114 117 117 120 117 112 111 109 110 110 114 122 119 108 101 96 90 86 82 81 82 78 76 78 78 76 73 69 68 69 69 69 70 71 72 73 74 73 69 63 54 47 46 48 46 41 37 36 41 40 43 54 63 58 49 41 33 29 25 26 28 31
165 166 164 156 153 154 150 150 147 139 133 131 130 129 124 123 123 90 90 110 127 121 118 118 115 113 114 112 107 105 104 106 106 105 108 109 103 96 93 88 85 84 86 88 86 82 80 77 77 74 71 69 69 69 67 67 66 65 64 62 61 58 55 51 49 47 46 45 45 51 58 56 50 57 64 66 57 43 38 33 29 28 31 37 39
164 167 164 153 157 166 162 155 151 145 138 139 134 134 133 142 136 85 99 102 107 111 115 116 114 114 112 109 109 110 108 106 105 104 102 102 101 96 92 88 87 88 89 92 93 88 81 77 77 73 70 69 68 69 68 67 66 65 65 63 62 59 58 55 51 48 47 48 50 56 64 66 58 60 63 60 52 41 35 31 29 29 36 42 40
164 166 164 155 164 176 169 159 156 150 143 144 136 146 159 159 120 92 92 87 95 108 110 112 114 113 110 109 107 107 107 106 104 102 100 98 99 98 95 89 89 91 90 89 87 87 82 76 75 73 70 70 69 69 68 68 67 65 64 62 60 58 58 56 54 52 51 52 55 58 61 62 57 57 58 53 47 41 36 32 32 31 37 42 40
162 165 164 158 171 181 173 163 158 152 148 151 145 163 182 158 127 91 78 76 95 109 110 110 115 112 108 110 103 98 98 98 97 97 96 94 98 100 95 88 89 92 91 89 89 88 81 74 73 73 71 72 70 69 68 67 65 63 61 59 58 58 57 55 54 53 51 52 56 59 61 58 50 48 50 47 42 41 40 36 35 31 32 35 37
158 160 164 158 173 181 175 169 162 155 154 164 168 180 185 166 146 88 72 78 102 110 115 113 114 111 106 105 102 98 95 95 97 102 102 95 97 100 96 88 86 88 88 90 91 89 81 75 74 74 73 73 71 70 68 67 65 63 61 59 58 58 57 54 54 53 50 52 55 57 67 66 48 46 47 43 38 39 42 38 37 32 29 31 36
155 157 162 157 169 180 180 175 168 160 161 176 185 195 190 173 140 97 82 88 108 113 121 120 113 110 111 105 100 99 97 98 100 103 100 93 93 94 95 90 85 85 86 87 88 87 82 78 76 74 74 73 71 70 68 67 64 62 61 60 59 58 57 57 56 54 53 57 57 53 63 62 46 45 44 40 43 44 41 36 35 33 28 29 32
152 156 160 158 166 178 184 181 174 167 167 177 183 188 183 172 132 106 95 94 111 117 123 122 111 106 116 113 101 98 96 97 96 95 94 93 91 89 92 91 90 88 88 89 90 88 84 79 76 74 74 72 70 69 68 67 65 63 62 61 61 60 59 59 58 55 56 59 60 53 54 61 54 44 39 40 47 45 41 37 32 28 24 23 23
150 155 159 159 163 172 180 179 175 174 173 173 172 174 172 163 127 107 100 101 110 115 120 118 112 108 114 114 106 101 97 96 94 95 95 93 93 93 92 89 87 86 91 93 90 87 83 80 77 75 75 72 70 69 69 67 67 65 64 63 62 61 59 59 59 55 54 55 56 55 53 62 63 47 44 44 43 42 40 37 29 21 19 17 18
148 153 158 156 158 163 168 167 170 176 176 174 172 171 167 156 127 109 106 108 120 118 119 121 123 125 121 111 106 107 104 101 96 95 94 90 90 93 90 88 85 82 89 91 89 86 83 82 80 78 76 74 73 71 70 68 68 66 64 63 61 60 58 56 55 52 51 51 50 51 50 50 54 47 40 39 41 43 40 35 29 23 20 16 16
150 152 157 154 155 158 161 163 168 170 163 166 168 165 162 156 139 125 110 104 130 125 115 125 132 132 126 107 100 110 108 100 94 93 93 91 89 89 89 90 90 86 86 88 90 88 85 85 82 81 78 76 74 72 71 68 67 64 62 60 59 56 54 53 50 49 47 48 47 46 47 44 53 46 32 36 42 41 36 30 27 25 23 17 16
152 153 157 154 153 158 163 167 170 160 147 156 161 164 166 160 150 137 115 104 126 124 111 119 125 125 125 115 108 110 107 100 91 89 89 92 92 90 92 93 92 90 88 88 90 90 88 86 84 81 78 76 74 73 70 68 65 62 60 57 55 52 51 51 47 46 43 43 43 42 46 44 53 50 36 30 25 31 31 25 23 22 18 16 16
153 154 155 157 154 157 165 171 170 159 148 154 160 166 167 154 145 133 109 112 124 124 112 111 112 114 122 126 125 114 108 107 98 94 92 94 95 95 95 96 96 94 91 89 90 90 89 87 85 83 80 77 74 73 70 67 64 60 58 53 51 48 47 48 46 43 39 39 37 37 39 36 43 50 45 4 350 16 28 20 18 20 16 11 14
152 155 156 159 157 157 163 169 168 165 157 156 163 164 156 143 136 128 114 115 122 116 110 116 118 117 118 123 130 124 119 118 112 107 102 100 100 98 98 97 97 94 92 88 87 89 89 88 85 83 80 78 74 72 69 65 61 56 54 50 48 45 43 43 43 39 35 33 32 33 31 26 26 33 32 352 351 4 13 13 10 15 19 11 7
155 157 160 161 160 161 161 163 166 170 165 163 166 158 148 144 140 135 126 122 124 117 116 123 127 125 120 118 121 122 122 125 125 118 111 110 105 102 100 97 95 93 92 89 87 85 85 84 81 80 76 74 72 69 67 62 59 54 50 47 43 40 38 37 37 33 30 28 25 25 21 18 15 19 18 359 6 3 352 0 2 7 17 14 3
162 162 162 164 163 164 160 160 166 170 168 168 167 157 149 148 146 140 137 135 132 128 128 132 131 129 124 121 119 116 116 123 130 125 118 115 110 108 103 98 94 92 92 89 86 81 77 76 74 74 72 70 68 65 63 59 56 51 46 42 38 35 32 31 30 25 24 22 19 17 10 8 6 11 14 5 8 359 342 344 352 359 4 9 1
169 168 167 167 167 166 161 160 163 165 164 163 163 159 155 154 152 147 147 145 141 138 136 137 136 133 129 126 122 119 118 122 128 127 124 122 116 113 105 100 95 92 92 89 85 81 75 70 68 67 67 66 64 62 60 57 54 48 43 38 32 29 26 24 20 18 17 11 10 9 1 360 0 3 9 12 7 352 335 333 343 351 352 354 353
174 171 171 171 170 170 162 160 162 161 160 160 163 162 160 159 156 152 153 150 147 144 140 140 140 137 132 129 127 126 126 126 128 130 128 126 122 117 111 106 100 96 94 91 85 80 76 69 64 59 56 56 55 52 50 48 43 38 33 28 23 19 16 12 9 7 4 360 359 356 351 351 352 355 0 4 0 342 328 329 337 342 343 344 344
177 174 175 173 172 172 166 164 164 164 165 165 165 164 163 160 156 153 152 150 148 143 140 141 139 138 135 132 133 131 131 131 131 132 130 127 125 121 119 115 108 105 99 94 88 82 79 71 64 56 48 41 37 35 31 28 24 21 17 14 11 6 1 358 357 354 351 348 347 345 344 345 344 348 351 352 350 339 332 335 337 336 335 336 337
182 179 177 175 175 174 170 169 168 170 171 169 167 163 160 156 152 151 147 146 144 139 138 138 137 136 134 134 135 135 136 136 135 132 130 127 125 123 123 123 122 117 108 100 95 91 86 74 60 45 34 22 18 15 11 9 7 5 3 2 357 351 348 347 344 342 340 338 338 339 340 343 344 346 349 350 349 343 341 342 341 337 332 328 329
188 183 179 180 179 176 175 173 172 173 173 170 166 160 157 154 151 149 145 142 139 137 138 136 135 132 132 134 135 138 138 137 136 133 130 127 125 126 126 128 130 127 119 110 105 97 85 71 42 21 12 5 1 359 358 356 353 350 351 350 345 342 340 340 338 336 334 332 332 336 339 342 343 344 347 348 346 342 340 341 339 338 335 328 326
194 188 185 185 184 182 181 178 174 174 174 171 166 161 157 154 151 148 144 143 141 140 139 137 135 133 134 135 135 136 135 135 135 132 131 129 129 132 132 132 133 131 126 116 106 90 61 7 347 343 338 338 335 338 336 335 335 335 337 337 336 337 336 335 334 335 335 336 335 337 341 340 338 339 341 341 339 336 333 333 332 332 334 331 328
201 195 191 189 188 188 186 183 179 176 175 172 169 165 160 156 152 150 147 144 142 141 141 140 139 138 137 135 135 134 133 135 138 139 138 142 147 147 146 143 141 140 139 136 145 269 288 292 298 299 297 296 293 295 297 302 306 310 317 319 325 328 328 330 329 331 334 335 337 337 339 338 335 333 332 333 331 330 327 325 324 325 327 326 325
206 202 197 194 192 191 191 188 184 180 177 175 173 169 166 162 158 156 153 148 146 144 144 145 144 143 143 140 138 139 141 145 150 158 160 166 169 171 175 171 173 178 188 218 248 267 274 275 272 274 276 277 280 283 286 290 290 295 306 309 316 317 315 321 322 320 322 324 328 330 333 335 334 330 329 328 327 326 326 325 323 322 319 320 321
208 206 203 201 199 196 194 192 189 186 182 179 177 175 173 169 167 166 163 160 157 156 155 154 153 151 151 152 153 156 162 169 175 180 183 188 193 197 204 212 222 235 244 256 264 264 267 268 266 269 272 276 282 288 296 304 308 313 317 310 306 305 306 315 318 318 319 318 319 324 329 332 331 329 329 328 328 328 328 326 324 320 318 318 319
211 208 207 207 206 203 199 197 195 192 189 186 183 181 180 180 178 177 175 174 173 176 175 169 169 168 168 173 176 182 188 197 202 209 212 210 222 228 232 246 253 261 266 273 276 272 273 274 276 281 286 291 295 301 304 311 318 321 321 314 304 303 307 316 325 331 333 328 323 323 325 328 328 329 329 329 329 329 328 326 322 319 318 318 317
212 210 210 210 210 209 206 205 202 200 199 195 192 189 188 189 189 190 190 188 190 195 194 191 193 193 198 204 208 212 214 221 226 231 234 234 241 243 249 255 257 262 266 271 274 279 283 284 290 298 303 306 309 308 308 311 315 318 323 326 323 320 320 326 338 344 343 338 331 328 327 328 327 326 327 328 329 329 327 324 321 320 319 319 318
212 211 211 212 213 213 211 211 211 208 206 204 202 200 199 198 198 202 204 204 207 211 212 211 213 215 221 227 232 235 236 238 240 244 247 248 250 250 254 256 257 261 264 265 269 277 282 287 293 299 304 307 308 310 314 314 313 320 332 340 342 339 337 344 353 350 345 342 338 336 335 334 332 330 330 329 329 327 325 323 321 321 321 322 322
212 211 212 214 214 214 215 215 217 216 213 212 211 210 211 210 210 213 215 217 220 222 225 226 227 229 232 237 241 244 246 247 249 251 253 254 255 255 255 256 259 263 266 268 270 274 280 286 290 292 295 299 301 305 312 315 320 338 354 355 352 353 360 3 0 351 344 343 342 342 343 345 343 338 333 330 328 325 323 322 322 323 324 325 326
213 212 212 215 216 216 217 217 219 220 219 219 219 219 219 220 221 224 225 228 230 232 234 235 236 238 239 242 244 245 246 248 250 252 255 256 255 255 257 260 265 270 275 277 278 280 284 288 290 290 289 289 293 297 304 312 328 356 7 6 3 8 15 9 356 346 341 342 341 341 344 345 340 335 332 330 328 325 323 323 325 328 328 328 328
217 214 214 217 218 218 219 220 220 221 222 223 223 224 225 227 229 230 233 235 237 239 240 242 242 243 244 245 246 247 246 246 247 249 251 253 254 255 258 264 270 275 278 280 282 285 288 291 292 292 288 287 289 290 298 306 339 7 8 6 5 8 5 355 344 336 331 332 334 338 340 338 336 335 336 336 333 331 331 334 338 340 339 338 338
220 218 219 220 220 221 222 223 223 223 224 225 225 226 228 231 233 235 237 238 240 242 243 244 246 246 247 246 247 247 246 245 245 247 249 253 256 257 259 263 268 274 278 284 291 289 296 305 304 301 291 288 294 293 294 304 5 22 13 1 360 358 354 346 338 330 324 324 330 337 341 341 341 342 346 348 348 349 351 355 358 358 356 355 355
224 222 222 223 222 223 224 225 225 225 226 226 227 228 229 231 234 236 238 240 242 242 243 244 245 246 246 246 246 246 246 245 245 248 250 255 259 260 260 259 262 273 280 291 303 294 298 311 315 323 311 296 307 306 298 304 334 6 1 352 349 351 350 341 332 329 325 326 334 343 348 348 348 352 2 8 9 9 10 12 12 10 9 7 5
228 226 224 224 224 224 226 226 226 227 227 228 229 229 230 231 233 235 237 240 242 242 242 243 244 245 244 244 244 244 245 246 247 248 250 254 258 261 264 262 263 272 278 287 298 284 287 305 317 335 334 324 319 322 317 307 309 330 337 328 331 343 344 335 330 333 337 340 346 356 0 357 0 12 20 20 19 19 19 19 17 16 15 13 12
230 229 227 227 227 227 228 228 227 227 228 229 229 230 231 232 233 235 236 239 241 242 242 242 243 243 243 242 242 244 244 246 248 249 250 253 258 262 265 266 268 274 276 279 286 282 286 298 306 309 318 323 306 309 311 301 303 318 324 321 328 338 334 329 336 356 359 1 9 19 18 12 17 24 24 23 22 21 20 20 20 19 19 17 16
232 230 229 229 228 228 229 229 228 227 228 228 228 230 231 233 234 234 235 237 239 240 241 242 242 241 242 241 241 243 245 246 249 250 253 253 255 260 262 265 269 271 271 275 282 290 293 293 294 288 284 292 293 294 295 292 296 306 315 320 323 329 329 334 9 24 24 33 41 39 34 28 25 25 26 24 21 20 19 19 19 19 19 17 16
233 231 231 230 229 228 229 230 229 227 228 228 227 228 229 230 232 233 234 235 237 239 242 243 241 240 241 242 243 244 246 247 249 252 254 254 256 258 258 260 263 263 264 271 277 283 288 287 290 286 279 293 298 290 286 288 295 304 316 321 325 334 345 42 51 44 50 51 51 49 40 29 25 26 26 23 21 19 16 15 16 16 16 16 15
232 232 231 230 230 228 228 230 229 229 229 228 228 228 228 229 230 232 234 235 237 238 241 243 242 240 239 240 244 247 248 249 251 253 253 255 256 253 252 255 260 261 263 270 275 276 277 278 284 282 278 301 297 277 279 294 304 307 317 333 3 14 58 76 54 58 61 47 50 52 38 24 22 26 26 21 19 15 13 12 12 14 13 12 12
232 232 231 230 231 230 229 230 230 231 231 231 231 230 230 232 233 235 237 238 239 239 242 244 245 245 243 242 244 247 249 249 253 254 254 256 255 252 252 253 257 261 262 267 272 273 272 273 275 268 264 289 287 273 285 304 308 312 324 342 7 24 85 70 52 64 53 38 45 45 32 22 19 23 25 20 16 13 12 11 11 12 10 8 7
235 234 233 231 232 232 232 231 231 232 233 233 234 233 232 234 237 240 243 245 245 244 244 245 246 245 243 242 243 245 246 248 251 254 255 256 255 254 255 254 254 258 261 263 265 265 270 274 268 251 252 268 275 278 289 300 306 320 334 328 316 351 85 47 41 64 48 33 37 38 30 20 16 17 21 19 15 14 12 12 12 9 7 5 4
238 236 234 233 233 234 234 233 233 234 235 235 235 235 236 238 239 242 246 248 248 246 243 242 242 241 239 239 239 238 241 245 246 249 253 257 258 256 254 252 250 252 254 255 259 263 273 278 263 249 252 257 267 281 285 293 303 316 325 305 311 1 120 352 30 57 39 27 24 27 26 18 12 11 16 18 15 17 19 14 10 6 5 4 1
240 239 238 236 236 238 238 237 236 237 237 237 237 237 238 239 239 241 244 245 245 242 238 237 237 237 237 238 238 236 238 244 245 247 250 253 256 255 252 248 245 247 249 251 258 258 261 273 261 246 249 256 270 283 285 287 295 303 304 289 302 312 270 342 36 53 30 24 13 11 15 12 10 7 10 16 16 19 22 13 5 3 2 1 358
242 241 241 241 241 242 242 240 239 239 239 238 238 238 239 240 240 239 240 242 242 240 237 236 236 235 235 236 236 233 233 240 244 245 247 247 248 250 248 243 243 248 248 252 259 251 245 261 262 250 251 259 266 273 275 279 290 298 285 255 240 225 278 348 24 20 12 21 13 6 2 0 4 4 3 9 14 15 12 4 0 359 359 358 355
242 242 243 243 243 243 243 242 241 241 240 240 239 238 238 240 241 241 242 243 244 244 242 240 238 237 236 236 237 236 234 237 238 240 244 244 243 242 243 244 248 251 249 249 252 248 246 256 259 254 253 255 255 257 263 276 289 290 267 240 233 234 335 354 2 352 355 3 4 1 358 355 358 0 359 2 10 13 6 358 356 356 357 355 351
242 242 242 242 242 242 243 243 243 243 242 241 240 239 239 240 241 241 243 244 244 246 246 245 241 238 237 236 238 239 237 233 231 235 240 243 242 237 238 246 251 251 251 248 245 245 248 250 252 252 246 242 242 248 261 276 280 269 242 237 344 7 0 356 356 353 346 347 349 351 357 359 357 1 4 3 8 11 4 357 356 356 355 352 348
241 240 239 239 240 240 242 243 244 244 244 243 241 240 239 240 241 241 242 243 244 244 245 245 241 238 236 236 236 236 235 233 233 237 241 244 243 237 237 244 246 247 250 247 243 244 245 245 248 245 236 235 241 249 261 265 249 234 229 326 8 7 358 353 354 352 344 343 344 343 349 357 359 2 6 7 11 12 2 357 357 356 353 350 347
238 237 237 237 238 239 240 241 243 244 244 243 242 241 240 239 240 240 241 242 243 242 242 242 240 236 234 233 232 232 232 233 234 237 242 246 245 241 240 239 239 244 248 244 240 242 245 247 246 240 236 243 250 250 247 233 213 204 197 5 2 357 352 351 349 346 342 342 343 343 346 353 356 357 1 6 10 12 2 356 356 354 351 349 346
238 236 235 236 238 239 240 241 242 243 244 244 242 242 241 239 239 239 240 241 242 241 240 240 239 237 234 231 230 230 231 232 234 236 241 246 246 244 241 237 237 239 241 238 236 242 250 247 241 240 244 248 244 229 212 200 194 193 190 347 352 348 347 346 343 341 341 342 343 344 346 347 349 351 355 358 2 6 1 354 353 352 349 347 346